[[{"header":{"parameterUnit":"m.s-1","parameterCategory":1,"la1":30.2991,"la2":30.254,"lo1":-89.0895,"lo2":-89.0444,"dy":0.0017,"dx":0.0017,"nx":28,"ny":28,"refTime":"2024-08-16T21:00:00:Z","depth":0,"parameterNumber":2,"parameterNumberName":"U-component_of_WINDS"},"data":[0,0,0,0,0,0,0,0,0,0,0,0,0,0,0,0,0,0,0,0,0,0,0,0,0,0,0,0,0,0,0,0,0,0,0,0,0,0,0,0,0,0,0,0,0,0,0,0,0,0,0,0,0,0,0,0,0,0,4.2142,4.2142,0,4.2217,4.2218,4.2219,4.2189,4.2187,4.2186,4.2184,4.2262,4.2265,4.2269,0,0,0,0,0,0,0,0,0,0,0,0,0,4.1973,4.1977,4.2142,4.2143,4.2144,4.2217,4.2218,4.2219,4.219,4.2187,4.2185,4.2183,4.226,4.2265,4.2269,0,0,0,0,0,0,0,0,0,0,0,0,0,4.2048,4.1978,4.2141,4.2138,4.2138,4.2217,4.2218,4.222,4.219,4.2187,4.2185,4.2182,4.2259,4.2264,4.227,4.2357,0,0,4.2287,4.2289,0,0,0,0,0,0,0,0,4.2043,4.2054,4.2137,4.2138,4.2139,4.2191,4.2187,4.2266,4.2191,4.217,4.2184,4.2181,4.224,4.2247,4.2267,4.2361,4.2364,4.2287,4.2291,4.2293,4.2295,0,0,0,0,0,0,0,4.2038,4.205,4.2172,4.2138,4.2139,4.2133,4.214,4.2202,4.2219,4.2172,4.217,4.2179,4.224,4.2262,4.2269,4.2365,4.2287,4.2292,4.2296,4.2298,4.2538,4.2541,0,0,0,0,0,0,4.2033,4.2046,4.2169,4.2174,4.2083,4.2138,4.2146,4.2177,4.2218,4.2222,4.2181,4.2178,4.2254,4.2262,4.2271,4.2378,4.2293,4.2298,4.2301,4.2535,4.2539,4.2542,0,0,0,0,0,0,4.2029,4.2044,4.2166,4.211,4.2125,4.2144,4.2178,4.218,4.2202,4.2226,4.2229,4.22,4.2252,4.2264,4.2337,4.2381,4.2301,4.2306,4.2531,4.2536,4.254,4.2592,0,0,0,0,0,0,4.2025,4.2043,4.2075,4.2111,4.2128,4.223,4.2181,4.2183,4.2211,4.2207,4.2244,4.2248,4.2251,4.2329,4.2342,4.2387,4.231,4.2527,4.2533,4.2539,4.2586,4.2598,4.2607,0,0,0,0,0,4.2019,4.2086,4.2077,4.2092,4.2169,4.2232,4.2242,4.2244,4.2215,4.2248,4.2265,4.2247,4.2374,4.2337,4.2352,4.2398,4.2525,4.2532,4.2538,4.2582,4.2595,4.2607,0,0,0,0,0,0,4.2055,4.2091,4.2081,4.2162,4.2195,4.2227,4.2269,4.2258,4.2299,4.2293,4.2294,4.2303,4.2379,4.2396,4.2354,4.2487,4.2445,4.2455,4.2473,4.2486,4.2496,4.2491,4.2315,0,0,0,0,0,4.2073,4.2121,4.2149,4.2218,4.2235,4.225,4.2277,4.2276,4.231,4.2323,4.2344,4.2378,4.2426,4.2457,4.2502,4.2589,4.2598,4.2629,4.2639,4.2648,4.2657,4.2707,4.2721,4.2564,4.2564,4.2564,0,0,4.2109,4.2135,4.2165,4.2226,4.2251,4.2302,4.2261,4.2316,4.2354,4.2331,4.2402,4.2419,4.2457,4.2538,4.2575,4.2555,4.2702,4.2657,4.2663,4.2667,4.2715,4.273,4.2743,4.2569,4.2568,4.2567,0,0,4.2202,4.2225,4.2286,4.2313,4.2352,4.2361,4.2376,4.2412,4.2422,4.2494,4.2479,4.2524,4.2606,4.2634,4.2659,4.2766,4.2752,4.2781,4.2836,4.2884,4.2897,4.2908,4.2947,4.2962,4.279,4.279,4.279,0,4.2242,4.2317,4.2319,4.2376,4.2404,4.2388,4.2451,4.2476,4.2528,4.2548,4.2525,4.2629,4.2653,4.2742,4.2768,4.2789,4.2807,4.2776,4.2895,4.2906,4.2916,4.2954,4.2969,4.2793,4.2793,4.2793,4.2792,0,4.2366,4.2419,4.2464,4.2515,4.2549,4.2608,4.262,4.2654,4.2651,4.2664,4.2738,4.2767,4.2819,4.284,4.2837,4.2929,4.2916,4.2894,4.2852,4.2934,4.297,4.2985,4.2798,4.2797,4.2796,4.2795,0,0,4.2482,4.2536,4.2552,4.2576,4.2619,4.2661,4.2721,4.2772,4.2802,4.2839,4.289,4.2961,4.2942,4.2971,4.2971,4.3014,4.3099,4.2987,4.2988,4.3008,4.3205,4.3222,4.3238,4.3091,4.3093,4.3096,4.3203,0,4.2578,4.2683,4.2688,4.2784,4.2834,4.2821,4.2873,4.2906,4.292,4.2966,4.2981,4.3032,4.3002,4.302,4.3062,4.308,4.3139,4.3072,4.3139,4.3141,4.313,4.3257,4.3274,4.3373,4.3216,4.3219,4.322,0,4.2705,4.2747,4.2848,4.2887,4.2908,4.2955,4.3004,4.3047,4.3085,4.3093,4.3126,4.3122,4.3185,4.3141,4.3229,4.3183,4.3211,4.3225,4.3229,4.3235,4.3186,4.3267,4.3405,4.342,4.3242,4.324,4.3239,0,4.2781,4.2863,4.2935,4.2956,4.3002,4.3036,4.3057,4.3092,4.3124,4.3167,4.3188,4.3238,4.3265,4.3304,4.3314,4.3281,4.3402,4.3359,4.3411,4.3411,4.3437,4.3435,4.3581,4.3454,4.3454,4.3454,4.3453,0,4.2888,4.2951,4.297,4.3014,4.3084,4.309,4.316,4.3179,4.3212,4.326,4.3252,4.3297,4.3307,4.3355,4.3363,4.3436,4.3448,4.3457,4.3458,4.3458,4.3457,4.3476,4.3469,4.3458,4.3457,4.3456,4.3455,0,4.2984,4.2999,4.3077,4.3116,4.3127,4.3177,4.3211,4.3254,4.3268,4.333,4.3345,4.3368,4.3425,4.3438,4.3505,4.3511,4.3597,4.3592,4.3584,4.3584,4.3636,4.3631,4.38,4.3823,4.368,4.3682,4.3683,0,4.3052,4.31,4.3145,4.3177,4.32,4.3252,4.3284,4.3293,4.3328,4.3376,4.3414,4.347,4.3515,4.3607,4.363,4.3682,4.3678,4.3734,4.3686,4.3685,4.368,4.3677,4.3683,4.3743,4.3744,4.3745,4.3746,0,4.3171,4.3177,4.3224,4.3276,4.3315,4.3356,4.3394,4.3421,4.3436,4.3475,4.3534,4.3569,4.3639,4.3695,4.3748,4.3771,4.3762,4.3762,4.3777,4.3777,4.3771,4.3776,4.361,4.3757,4.3756,4.3756,4.3755,4.3755,4.3256,4.3299,4.3338,4.3392,4.3423,4.346,4.3503,4.3524,4.3572,4.363,4.3633,4.3697,4.3736,4.3807,4.3833,4.3884,4.3867,4.3888,4.3894,4.3899,4.3904,4.3763,4.3893,4.3893,4.3893,4.3893,4.3892,0,4.3376,4.3401,4.3451,4.3506,4.3549,4.3537,4.3581,4.3617,4.3674,4.3712,4.3757,4.3826,4.3881,4.3909,4.3964,4.4,4.3998,4.4014,4.4012,4.4018,4.3916,4.3897,4.4016,4.4016,4.4016,4.4016,4.4016,4.4016,4.3443,4.3516,4.3527,4.3616,4.3641,4.3704,4.373,4.3765,4.3795,4.3872,4.3918,4.3937,4.3972,4.403,4.4081,4.4088,4.4109,4.4128,4.4133,4.4037,4.4024,4.4012,4.3996,4.4132,4.4133,4.4231,4.4232,4.4233]},{"header":{"parameterUnit":"m.s-1","parameterCategory":1,"la1":30.2991,"la2":30.254,"lo1":-89.0895,"lo2":-89.0444,"dy":0.0017,"dx":0.0017,"nx":28,"ny":28,"refTime":"2024-08-16T21:00:00:Z","depth":0,"parameterNumber":3,"parameterNumberName":"V-component_of_WINDS"},"data":[0,0,0,0,0,0,0,0,0,0,0,0,0,0,0,0,0,0,0,0,0,0,0,0,0,0,0,0,0,0,0,0,0,0,0,0,0,0,0,0,0,0,0,0,0,0,0,0,0,0,0,0,0,0,0,0,0,0,-1.3358,-1.3358,0,-1.3354,-1.3354,-1.3353,-1.3334,-1.3334,-1.3333,-1.3333,-1.3327,-1.3327,-1.3328,0,0,0,0,0,0,0,0,0,0,0,0,0,-1.3352,-1.3352,-1.3358,-1.3358,-1.3358,-1.3354,-1.3354,-1.3353,-1.3334,-1.3334,-1.3333,-1.3333,-1.3327,-1.3327,-1.3328,0,0,0,0,0,0,0,0,0,0,0,0,0,-1.3352,-1.3352,-1.3358,-1.3348,-1.3347,-1.3354,-1.3354,-1.3353,-1.3335,-1.3334,-1.3333,-1.3333,-1.3327,-1.3327,-1.3328,-1.3343,0,0,-1.3329,-1.3329,0,0,0,0,0,0,0,0,-1.3352,-1.3352,-1.335,-1.3349,-1.3348,-1.3344,-1.3349,-1.335,-1.3335,-1.3339,-1.3333,-1.3332,-1.3333,-1.3333,-1.3333,-1.3343,-1.3342,-1.3329,-1.3329,-1.3329,-1.3329,0,0,0,0,0,0,0,-1.3352,-1.3352,-1.3356,-1.335,-1.3349,-1.3344,-1.3343,-1.3349,-1.334,-1.3339,-1.3338,-1.3337,-1.3333,-1.3333,-1.3333,-1.3342,-1.3329,-1.3329,-1.3329,-1.333,-1.3366,-1.3367,0,0,0,0,0,0,-1.3353,-1.3352,-1.3357,-1.3356,-1.3348,-1.3345,-1.3344,-1.3346,-1.334,-1.3338,-1.3338,-1.3336,-1.3333,-1.3333,-1.3333,-1.3352,-1.3329,-1.333,-1.333,-1.3365,-1.3366,-1.3367,0,0,0,0,0,0,-1.3353,-1.3354,-1.3357,-1.3354,-1.3354,-1.3346,-1.3348,-1.3346,-1.3347,-1.3339,-1.3337,-1.334,-1.3332,-1.3332,-1.3341,-1.3351,-1.333,-1.333,-1.3364,-1.3366,-1.3367,-1.3389,0,0,0,0,0,0,-1.3353,-1.3354,-1.3359,-1.3354,-1.3354,-1.3365,-1.3349,-1.3347,-1.3348,-1.3346,-1.3341,-1.3339,-1.3332,-1.3341,-1.3342,-1.3351,-1.333,-1.3363,-1.3365,-1.3366,-1.3387,-1.339,-1.3393,0,0,0,0,0,-1.3353,-1.3365,-1.336,-1.336,-1.3361,-1.3366,-1.3366,-1.3357,-1.3348,-1.3354,-1.335,-1.3339,-1.335,-1.3342,-1.3343,-1.3353,-1.3363,-1.3364,-1.3366,-1.3386,-1.339,-1.3393,0,0,0,0,0,0,-1.3371,-1.3364,-1.3358,-1.3369,-1.3368,-1.3362,-1.3369,-1.3361,-1.3363,-1.3361,-1.335,-1.3349,-1.336,-1.3357,-1.3348,-1.3368,-1.3355,-1.3357,-1.3369,-1.3373,-1.3376,-1.3377,-1.3331,0,0,0,0,0,-1.3376,-1.3381,-1.3375,-1.3385,-1.3385,-1.3377,-1.3379,-1.3373,-1.3371,-1.3371,-1.3366,-1.3365,-1.3369,-1.3371,-1.3373,-1.3387,-1.3386,-1.3394,-1.3397,-1.34,-1.3402,-1.341,-1.3414,-1.3372,-1.3372,-1.3372,0,0,-1.3387,-1.3384,-1.3387,-1.3389,-1.3387,-1.3392,-1.3377,-1.3383,-1.3387,-1.3371,-1.338,-1.3377,-1.3375,-1.3387,-1.3392,-1.3385,-1.3413,-1.3402,-1.3404,-1.3404,-1.3412,-1.3416,-1.342,-1.3374,-1.3373,-1.3373,0,0,-1.341,-1.3408,-1.3417,-1.3416,-1.3414,-1.341,-1.3412,-1.3408,-1.3406,-1.3414,-1.3403,-1.3408,-1.3413,-1.3413,-1.3413,-1.3438,-1.3429,-1.3439,-1.3455,-1.3464,-1.3467,-1.347,-1.348,-1.3483,-1.3441,-1.3441,-1.3441,0,-1.3423,-1.3431,-1.3422,-1.3429,-1.3431,-1.3418,-1.3428,-1.3427,-1.3426,-1.3428,-1.342,-1.3428,-1.3426,-1.3438,-1.3444,-1.3445,-1.3448,-1.3439,-1.3467,-1.347,-1.3473,-1.3482,-1.3486,-1.3442,-1.3442,-1.3442,-1.3442,0,-1.3448,-1.3454,-1.3461,-1.3462,-1.3464,-1.3472,-1.3465,-1.3469,-1.3463,-1.3459,-1.3469,-1.3466,-1.3468,-1.3471,-1.3464,-1.3482,-1.3478,-1.3469,-1.3456,-1.3478,-1.3487,-1.349,-1.3444,-1.3444,-1.3443,-1.3443,0,0,-1.3481,-1.3478,-1.3481,-1.3482,-1.348,-1.3484,-1.3492,-1.3495,-1.3499,-1.3499,-1.3506,-1.3512,-1.3505,-1.3505,-1.3499,-1.3507,-1.3528,-1.3497,-1.3497,-1.3503,-1.3549,-1.3556,-1.356,-1.3522,-1.3523,-1.3523,-1.355,0,-1.3503,-1.3517,-1.351,-1.3525,-1.3531,-1.352,-1.3527,-1.3528,-1.3525,-1.3529,-1.3526,-1.3531,-1.352,-1.352,-1.3527,-1.3524,-1.3537,-1.3522,-1.3529,-1.353,-1.353,-1.3565,-1.3572,-1.3597,-1.3553,-1.3553,-1.3554,0,-1.353,-1.3533,-1.3549,-1.3548,-1.355,-1.3557,-1.356,-1.3564,-1.3565,-1.3562,-1.3564,-1.3557,-1.3565,-1.3552,-1.3565,-1.3555,-1.3557,-1.3556,-1.3557,-1.3558,-1.3543,-1.3567,-1.3604,-1.3608,-1.3559,-1.3558,-1.3558,0,-1.3554,-1.3561,-1.3572,-1.3573,-1.3572,-1.3577,-1.3577,-1.3576,-1.3579,-1.3582,-1.3584,-1.3588,-1.359,-1.3593,-1.3587,-1.3578,-1.3601,-1.3587,-1.36,-1.36,-1.3605,-1.3604,-1.3644,-1.3606,-1.3606,-1.3606,-1.3606,0,-1.3579,-1.359,-1.3583,-1.3589,-1.3601,-1.3594,-1.3606,-1.3604,-1.3604,-1.3611,-1.3602,-1.3608,-1.36,-1.3606,-1.3601,-1.3613,-1.3614,-1.3612,-1.3611,-1.3613,-1.3614,-1.3615,-1.3613,-1.3607,-1.3606,-1.3606,-1.3606,0,-1.3607,-1.3603,-1.3614,-1.3613,-1.3613,-1.3621,-1.362,-1.3627,-1.3624,-1.3632,-1.3634,-1.363,-1.3636,-1.3631,-1.3637,-1.3634,-1.365,-1.3646,-1.365,-1.3649,-1.3662,-1.3661,-1.3704,-1.371,-1.3668,-1.3668,-1.3669,0,-1.3624,-1.3632,-1.3632,-1.3636,-1.3636,-1.3643,-1.3646,-1.364,-1.3644,-1.3646,-1.3652,-1.3658,-1.3663,-1.3674,-1.3671,-1.3677,-1.3673,-1.3688,-1.3674,-1.3676,-1.3674,-1.3674,-1.3675,-1.369,-1.3691,-1.3691,-1.3692,0,-1.3655,-1.3653,-1.3658,-1.3663,-1.3667,-1.3671,-1.3673,-1.3677,-1.3671,-1.3676,-1.3683,-1.3687,-1.3694,-1.37,-1.3705,-1.3705,-1.3698,-1.3696,-1.37,-1.3702,-1.3705,-1.3704,-1.3658,-1.3695,-1.3695,-1.3695,-1.3694,-1.3694,-1.3678,-1.3685,-1.3686,-1.3693,-1.3695,-1.3698,-1.3704,-1.3703,-1.3709,-1.3715,-1.3711,-1.372,-1.3721,-1.3727,-1.3728,-1.3735,-1.3729,-1.3734,-1.3735,-1.3736,-1.3739,-1.3704,-1.3736,-1.3736,-1.3736,-1.3736,-1.3736,0,-1.3709,-1.3709,-1.3716,-1.372,-1.3726,-1.3719,-1.3722,-1.3728,-1.3736,-1.3738,-1.3743,-1.3752,-1.3759,-1.3758,-1.3764,-1.377,-1.3767,-1.3772,-1.3772,-1.3772,-1.3743,-1.374,-1.3775,-1.3775,-1.3775,-1.3775,-1.3775,-1.3775,-1.3725,-1.3737,-1.3736,-1.3749,-1.375,-1.3759,-1.3762,-1.3765,-1.3767,-1.3778,-1.3784,-1.3783,-1.3784,-1.3791,-1.3797,-1.3797,-1.38,-1.3806,-1.3805,-1.3778,-1.3774,-1.377,-1.3767,-1.3807,-1.3807,-1.3833,-1.3833,-1.3833]}]]